Weather Roundup
Issued by NWS Chicago, IL

Home | Current Version | Previous Version | Text Only | Print | Product List | Glossary Off
Versions: 1 2 3 4 5 6 7 8 9 10 11 12 13 14 15 16 17 18 19 20 21 22 23 24 25 26 27 28 29 30 31 32 33 34 35 36 37 38 39 40 41 42 43 44 45 46 47 48 49 50

000
NZUS59 KLOT 302000
HRRLOT

CHICAGO AREA WEATHER ROUNDUP
NATIONAL WEATHER SERVICE CHICAGO/ROMEOVILLE IL
300 PM CDT THU JUL 30 2015

NOTE: "FAIR" INDICATES FEW OR NO CLOUDS BELOW 12,000 FEET WITH NO
SIGNIFICANT WEATHER AND/OR OBSTRUCTIONS TO VISIBILITY.

* THESE STATIONS ARE NOT UNDER NWS QUALITY CONTROL. THEY ALSO MAY NOT
  REPORT WEATHER SUCH AS PRECIPITATION OR FOG.

ILZ005-006-012>014-019>023-302100-
NORTHEAST ILLINOIS

CITY           SKY/WX    TMP DP  RH WIND       PRES   REMARKS
OHARE          MOSUNNY   87  52  29 NW15G21   30.03F HX  85
MIDWAY         MOSUNNY   89  51  27 W16G25    30.04F HX  86
AURORA         SUNNY     86  58  38 W13       30.07F HX  85
WAUKEGAN       NOT AVBL
DUPAGE AIRPORT SUNNY     86  53  32 W13G21    30.05F HX  84
WHEELING       MOSUNNY   88  51  28 NW14G24   30.04F HX  85
NORTHERLY IS     N/A     86  46  24 W8          N/A  HX  83
$$

WIZ051-052-058>065-066-070>072-302100-
SOUTHEAST WISCONSIN

CITY           SKY/WX    TMP DP  RH WIND       PRES   REMARKS
MILWAUKEE      MOSUNNY   86  51  29 W18G31    30.00F HX  84
KENOSHA*       SUNNY     85  57  38 W15G29    30.02F HX  84
RACINE*        MOSUNNY   87  53  31 NW15G22   30.02F HX  85
WAUKESHA       MOSUNNY   84  52  32 W23G29    30.03F HX  82
$$

INZ001>003-010>013-019-020-302100-
NORTHWEST INDIANA

CITY           SKY/WX    TMP DP  RH WIND       PRES   REMARKS
GARY*          MOSUNNY   88  55  33 NW7G21    30.05F HX  86
MICHIGAN CITY* NOT AVBL
RENSSELAER*    NOT AVBL
$$

LMZ740>746-302100-
SOUTHERN LAKE MICHIGAN

STATION/POSITION TIME  SKY/WX   TEMP WIND        PRES    VSBY
                                AIR  DIR/SP/G
                 (UTC)          (F)  (DEG/KT/KT) (MB)    (MI)
HARRISON CRIB    1900            82  300/ 15/ 19   N/A
BURNHAM HARBOR   1900            86  300/  9/ 15   N/A
CALUMET HARBOR   1900            87  270/  4/ 12   N/A
BURNS HARBOR     1900            80   CALM  /  2 1018.3F
MICHIGAN CITY    1900            77  210/  6/  7   N/A
$$

ABBREVIATIONS USED IN REMARKS
   TC - TEMPERATURE IN CELSIUS
  WCI - WIND CHILL INDEX
   HX - HEAT INDEX
  VSB - VISIBILITY
$$



USA.gov is the U.S. government's official web portal to all federal, state and local government web resources and services.